Location: Lesignano de� Bagni
(44.6500°N, 10.3000°E)
Time: 14:56:13
(UTC+00:00)

Resurs 1-3 - Pass Details

Date: 03 March 2021
Orbit: 629 x 633 km, 97.9° (Epoch: 22 April)

Event Time Altitude Azimuth Distance (km) Brightness Sun altitude
Exits shadow 19:38:49 50° 341° (NNW) 808 4.2 -27.0°
Drops below altitude 10° 19:42:07 10° 346° (NNW) 2,026 6.6 -27.6°
Sets 19:44:20 0° 347° (NNW) 2,939 7.5 -28.0°
